KUIPER-00137

导读 | 豆包AI

KUIPER-00166是美国亚马逊“柯伊伯计划”星座中的一颗互联网卫星,于2025年9月25日发射入轨,轨道倾角约93.7度。该卫星属于亚马逊第一代近地轨道卫星互联网系统,旨在构建全球卫星互联网,挑战SpaceX“星链”的市场主导地位,共同推动全球卫星互联网产业发展。

基本信息
目录编号:
65779
目录名称:
KUIPER-00166
国际标识:
2025-217T
轨道中心:
EARTH
卫星名称:
KUIPER-00166
卫星全名:
KUIPER-00137
卫星状态:
在轨 (已飞行159 天)
发射日期:
2025-09-25 UTC
国别 :
美国 (US)
星等 :
--
轨道信息
数据来源 国际轨道数据
星历时间: 2026-03-02T16:15:33+0800
19小时前
查看轨道信息
半长轴: 7008.005km
偏心率: 0.000117
轨道倾角: 51.903°
近地点辐角 102.895°
升交点赤经 55.602°
平近点角 257.215°
近地点: 629.048km
远地点: 630.688km
周期: 97.309分钟
每日圈数: 14.798278
详细信息
使用方式:
暂无
2D轨道图
3D轨道图
轨道高度分析图
轨道倾角分析图
轨道综合分析图
查看轨道综合分析图